Torna al catalogo

CZ-4 DEB

AttivoSSO
NORAD 23254·DEBRIS·🇨🇳 China

Lanciato Sep 3, 1990 da Taiyuan Satellite Launch Center

Loading…

Prossimi Passaggi (prossime 24 ore)

TLE

AggiornatoSource: Space-Track

Epoca: Sep 12, 2026, 03:14 UTC

1 23254U 90081CK  26255.13534077  .00000487  00000-0  15913-3 0  9995
2 23254  98.4608 316.3964 0064415 308.5422  51.0005 14.41825851690183

Traccia CZ-4 DEB in tempo reale con AllMySat

Download on the App Store